Wind_Speed
21 19 18 17 17 17 16 15 14 14 13 12 11 11 11 11 11 12 12 11 11 12 11 11 11 11 11 11 11 11 12 13 13 13 13 12 12 13 12 11 12 12 12 13 13 14 14 13 12 13 15 16 16 16 18 18 19 19 18 17 16 16 16
22 19 18 17 17 18 16 15 14 14 14 13 13 12 12 12 12 11 11 11 11 11 11 11 11 12 12 12 12 12 12 13 13 13 13 12 12 13 13 13 13 12 13 13 14 14 13 12 12 14 15 16 16 17 18 19 18 18 18 17 17 16 16
22 19 18 18 18 18 16 15 14 13 13 13 14 14 15 15 15 15 14 13 12 12 12 12 12 12 12 12 13 13 13 13 12 12 13 11 11 13 13 13 13 12 13 14 14 13 12 12 14 15 15 15 16 17 17 18 18 18 18 17 16 16 16
20 18 18 18 18 17 16 15 15 13 12 12 14 15 17 18 18 19 18 17 16 15 14 14 14 13 12 12 13 13 14 13 13 13 13 12 11 12 12 13 13 12 13 13 12 12 12 13 13 13 14 15 16 16 17 17 17 17 17 16 16 16 15
18 17 18 18 17 17 16 15 14 13 12 11 12 14 16 18 20 21 22 22 20 19 18 17 17 16 15 13 13 13 14 14 13 13 13 12 11 11 11 12 12 12 12 12 11 11 12 12 12 12 13 14 14 15 16 16 17 17 16 16 15 15 14
16 16 17 17 16 16 15 14 14 12 12 11 12 13 15 17 19 20 21 22 22 21 20 19 18 18 17 15 13 13 13 13 13 13 12 11 11 12 11 11 11 11 11 11 11 11 11 11 11 11 12 13 14 14 14 15 15 16 15 15 14 14 14
16 16 16 16 16 16 16 14 13 12 11 12 12 12 13 14 16 18 20 20 20 19 18 17 16 16 16 16 15 14 13 13 13 13 12 11 11 11 11 11 11 10 10 10 11 11 11 11 11 11 12 12 13 13 13 14 14 15 15 14 14 13 13
16 16 16 17 18 17 16 15 12 11 11 11 11 11 11 13 15 17 19 20 19 17 16 15 14 15 16 16 16 14 13 13 13 12 12 12 11 11 11 10 10 10 9 9 10 10 10 10 10 10 11 11 12 12 12 13 13 14 14 14 13 13 13
17 17 17 19 19 18 17 14 12 11 10 10 10 10 12 14 16 17 19 21 21 19 17 16 16 16 16 16 16 15 14 14 13 12 12 12 11 11 10 10 9 9 8 8 8 9 9 9 10 10 10 10 11 11 12 12 12 13 13 13 13 13 12
19 19 20 21 21 19 17 14 11 10 10 9 10 11 12 14 16 17 18 19 20 22 20 19 18 17 17 16 15 15 15 15 14 13 13 12 12 11 10 10 9 9 8 8 8 8 9 9 9 10 10 10 10 11 11 12 12 13 13 13 13 13 13
19 21 22 23 22 20 17 14 11 10 10 10 11 11 12 12 14 16 17 17 17 20 21 20 19 18 17 17 16 15 15 15 15 15 14 13 12 12 11 10 10 9 9 10 10 10 10 10 11 11 11 10 11 11 12 12 13 13 14 14 14 13 13
18 21 23 24 22 19 17 13 11 11 10 11 12 11 11 12 14 14 15 15 14 16 19 20 20 20 19 18 17 16 16 15 15 15 14 14 13 12 12 12 12 12 12 12 11 12 12 12 12 12 12 12 12 12 13 14 14 14 15 15 15 15 15
17 20 23 23 20 18 16 14 13 12 12 12 12 11 11 12 14 15 16 15 14 14 16 19 20 20 20 19 17 16 16 16 15 15 15 14 14 14 14 14 14 14 14 13 13 13 12 12 12 13 13 13 13 14 14 14 14 15 15 15 16 16 17
14 16 20 21 20 19 17 16 15 15 14 13 12 12 12 12 13 15 16 16 14 13 13 15 17 18 18 18 17 16 15 15 15 15 16 16 16 16 16 16 16 16 15 14 14 13 13 13 13 13 14 14 14 14 14 14 14 14 15 15 16 17 17
13 13 17 19 21 22 20 19 18 17 16 15 14 13 13 12 13 14 15 15 14 12 12 12 14 15 16 17 16 16 16 15 15 16 16 17 17 18 18 18 18 17 16 15 15 15 15 14 14 14 15 15 15 15 14 14 13 14 15 15 16 16 16
16 16 17 18 20 21 21 21 20 18 18 17 16 15 14 13 13 13 14 15 15 13 12 11 12 14 15 16 16 16 16 17 17 17 18 18 19 19 19 19 18 18 17 17 16 16 16 15 14 15 16 16 16 15 15 14 13 14 15 16 16 16 17
19 18 18 18 19 20 21 21 20 19 19 18 17 16 15 14 15 15 15 16 15 14 13 12 12 13 14 15 15 16 17 17 18 19 19 19 19 19 19 19 19 19 18 18 18 18 18 16 15 16 17 17 17 17 17 17 16 16 16 17 17 17 17
20 20 19 19 20 21 21 21 20 19 18 18 17 16 15 16 16 17 17 17 16 14 13 12 12 13 14 15 16 17 18 19 20 20 20 20 20 20 21 21 21 21 21 20 20 19 19 19 18 18 19 19 19 19 20 20 20 20 20 20 19 19 19
19 20 20 19 20 20 20 20 19 18 17 18 18 17 17 17 18 18 18 17 16 14 13 12 12 12 14 15 17 18 19 20 21 22 22 22 22 23 23 23 23 24 23 23 23 22 22 22 22 21 22 23 21 20 23 24 23 24 24 24 24 23 23
16 17 18 18 18 18 18 18 18 18 18 19 19 18 18 18 19 19 18 18 17 16 15 14 13 13 14 15 17 18 20 21 22 23 25 25 25 25 25 25 25 25 25 26 26 25 25 25 26 25 25 26 25 24 25 26 26 26 27 27 28 28 28
15 16 17 18 18 18 18 18 19 19 19 19 19 19 19 19 19 19 20 20 19 19 19 18 17 15 15 15 16 18 20 21 21 24 26 27 27 27 27 27 28 28 27 28 28 29 29 29 29 29 29 29 29 27 27 28 29 29 30 30 30 30 31
16 17 18 19 19 19 19 19 19 19 19 19 20 20 20 20 21 21 21 22 22 22 23 23 22 20 19 18 18 19 20 20 20 23 26 27 28 29 30 31 31 32 31 30 30 31 31 32 32 32 31 31 31 30 30 29 30 31 32 32 32 33 32
18 18 19 20 20 20 21 21 21 21 21 22 22 22 23 23 24 24 24 25 25 26 26 27 26 25 25 24 22 22 23 22 22 23 25 27 28 30 31 33 35 36 35 33 33 33 33 33 33 33 32 32 31 31 31 31 31 31 32 32 33 34 34
20 21 21 22 23 23 23 23 23 23 24 24 24 24 25 25 26 27 27 28 28 29 30 31 30 30 30 29 27 26 26 26 26 26 27 28 29 30 32 34 37 39 39 37 35 35 35 33 32 32 32 32 31 30 30 30 31 32 32 33 34 35 37
23 23 24 25 26 25 25 25 25 26 27 27 26 26 26 27 28 28 29 30 32 33 34 35 34 34 34 33 32 30 30 30 29 29 29 29 30 31 33 35 36 38 41 41 39 38 37 35 33 32 31 29 29 29 30 32 33 33 34 35 37 39 40
26 27 27 28 29 28 27 28 27 28 29 29 28 28 28 29 30 30 31 32 34 35 37 38 36 35 35 35 35 34 33 33 34 34 34 33 32 33 35 37 37 38 39 40 41 41 40 39 37 34 31 30 31 33 34 35 35 36 37 38 39 39 40
30 31 30 31 32 31 31 31 30 30 31 31 31 32 32 33 33 34 34 33 32 33 37 38 35 33 34 34 33 33 34 36 36 37 37 36 35 35 37 39 39 39 39 38 40 41 40 39 38 35 34 34 35 36 37 36 37 38 38 38 38 39 39
37 36 35 35 35 35 35 35 36 36 35 36 36 37 36 35 35 34 33 32 30 31 36 37 35 33 33 32 31 31 33 34 36 37 39 39 39 39 39 40 41 41 40 40 41 41 40 40 41 40 40 38 37 38 38 37 37 38 39 39 39 39 40
41 41 40 40 40 40 40 41 42 41 39 38 36 34 33 32 31 30 29 29 31 33 35 36 35 34 33 32 32 33 34 35 36 38 39 40 41 42 41 41 42 42 41 39 41 43 43 44 44 44 43 40 38 38 38 37 37 38 38 39 40 40 41
43 43 42 42 42 42 43 43 42 42 40 37 34 32 30 30 30 30 30 32 34 35 36 37 37 37 37 37 38 39 40 40 40 41 43 44 45 46 43 41 43 44 43 42 42 45 46 45 45 44 43 41 39 38 38 37 37 37 38 39 40 41 43
45 43 41 42 43 43 43 43 42 41 40 37 35 34 34 35 36 37 39 40 41 42 43 44 44 44 45 46 47 47 48 48 47 48 48 48 49 48 45 44 45 45 45 44 43 45 47 48 47 47 45 43 40 39 38 38 37 38 40 42 43 44 45
48 44 44 46 47 46 46 45 44 44 42 41 40 41 42 43 46 47 48 49 49 50 50 50 50 50 51 52 52 52 52 51 51 52 52 52 53 51 48 48 48 49 49 47 46 48 50 50 50 49 45 42 41 40 38 37 38 40 43 45 45 46 45
49 48 48 49 48 47 45 45 47 48 49 49 50 51 52 53 54 54 54 54 54 54 54 55 55 54 54 55 56 56 55 55 55 55 54 54 53 50 47 47 48 49 50 49 48 48 49 49 49 47 45 43 42 40 38 37 40 43 45 45 45 45 44
48 49 49 49 48 48 49 51 53 55 56 57 57 57 57 58 58 59 59 58 57 56 56 57 57 57 56 56 55 55 56 56 56 54 52 52 51 47 45 46 47 48 49 49 47 46 48 49 48 46 45 44 42 39 38 40 42 43 44 45 44 44 44
54 54 54 54 54 55 56 58 59 60 61 61 61 61 62 61 62 62 62 61 60 59 58 58 59 58 57 55 55 56 56 55 54 53 53 53 51 47 45 44 45 48 50 48 46 46 49 51 50 47 46 45 41 39 41 43 44 43 43 44 44 44 45
61 61 61 61 61 61 62 62 62 63 63 64 64 64 64 64 64 64 63 63 63 63 62 61 60 59 58 58 58 57 54 53 54 53 51 50 48 46 44 43 46 50 51 47 45 46 49 51 49 47 46 43 41 42 45 45 45 44 44 44 45 45 46
62 62 62 63 63 63 64 64 64 64 64 65 65 66 66 66 66 65 65 65 64 64 64 62 60 59 60 60 59 57 56 57 58 53 48 46 43 42 43 44 46 50 51 49 47 47 49 48 46 45 44 42 42 46 47 46 46 46 46 46 46 46 46
Wind_Direction
273 274 274 274 271 268 265 264 264 265 268 272 278 284 290 294 298 299 298 297 297 297 298 296 296 297 297 296 296 299 299 298 297 297 300 306 307 306 304 301 297 297 300 297 292 292 292 293 288 283 288 294 294 291 289 290 292 294 294 294 293 291 290
269 267 266 264 263 262 262 261 261 263 265 267 270 275 281 285 291 298 299 299 297 295 295 295 295 295 296 298 298 296 297 296 293 292 292 294 295 297 298 298 298 302 302 297 295 297 298 296 293 295 298 298 296 293 290 291 291 292 293 294 293 289 288
264 263 261 260 260 261 261 260 259 260 261 265 269 273 278 282 284 289 292 294 294 293 292 292 294 294 296 300 299 298 297 296 294 291 289 289 289 290 294 298 301 304 301 300 304 307 306 302 302 304 305 302 299 296 295 295 295 295 294 295 293 290 289
261 263 262 258 257 258 259 259 257 259 261 265 271 275 280 283 285 288 289 289 288 286 285 288 291 294 298 300 300 301 299 297 295 292 290 291 290 291 297 299 300 302 301 304 309 310 308 306 307 308 305 302 300 299 299 299 298 298 297 297 295 293 292
258 260 260 257 256 256 257 259 260 261 263 265 270 274 279 283 285 287 288 288 286 282 279 280 286 290 294 297 300 302 301 298 295 291 291 292 291 293 297 299 301 302 301 304 308 309 308 308 308 307 303 300 299 299 299 299 299 299 300 300 299 297 296
245 249 254 255 256 258 260 262 266 268 270 271 273 276 280 284 287 287 287 285 283 279 276 276 281 285 289 292 297 301 299 297 294 291 290 291 291 292 295 298 303 305 305 305 307 307 306 305 306 304 300 297 297 296 296 297 299 300 301 302 302 300 299
237 240 246 249 253 257 260 264 269 275 278 280 280 282 285 288 290 290 288 284 279 276 274 274 277 281 286 289 292 295 295 295 294 291 290 289 288 289 292 296 299 303 306 307 306 305 303 303 303 301 298 296 295 295 297 298 300 302 303 303 303 303 302
241 242 244 248 253 256 260 263 269 276 282 286 290 294 296 296 297 297 291 283 275 269 266 268 273 278 283 287 287 289 292 293 292 290 289 288 287 288 289 291 295 299 303 306 307 305 303 301 299 297 296 296 297 298 298 299 300 302 303 304 304 304 303
245 247 249 253 256 257 260 263 268 276 282 289 297 304 306 303 302 303 299 285 269 261 259 262 268 274 278 282 283 284 286 289 289 287 286 285 285 286 287 289 293 297 300 303 303 300 299 298 295 293 293 295 296 296 296 297 298 300 300 300 301 302 301
244 245 249 253 255 257 259 259 263 272 281 290 299 306 309 308 304 304 305 292 268 257 256 260 265 269 271 273 277 278 280 282 283 281 280 280 281 282 284 286 289 291 294 295 295 294 294 294 292 292 293 293 291 291 291 291 292 293 294 294 296 297 297
251 248 249 252 252 255 256 253 254 264 277 289 297 302 307 311 310 305 306 301 277 259 256 260 267 270 269 269 272 275 277 278 279 279 278 279 279 279 280 282 283 286 287 288 290 291 290 289 290 290 290 288 287 286 284 285 285 286 286 287 289 290 290
264 256 253 253 252 253 253 250 253 261 274 285 288 294 303 310 312 308 304 301 287 267 259 260 267 272 272 271 273 276 277 276 276 276 277 278 278 279 280 281 281 281 282 283 283 284 284 284 284 285 284 283 283 282 281 283 281 280 281 281 282 282 282
274 258 250 249 251 253 253 254 260 265 273 280 281 285 298 305 308 308 303 298 290 275 264 261 263 266 267 267 271 274 274 274 274 273 273 274 274 275 276 276 277 276 277 277 277 277 277 277 277 277 277 277 276 275 276 277 277 278 279 279 280 280 280
280 258 245 247 254 260 262 261 264 267 271 275 276 279 289 298 301 301 300 299 293 281 270 265 262 261 260 261 264 268 271 273 275 275 275 274 273 274 274 275 276 276 277 277 276 275 273 272 271 271 271 270 269 270 271 272 273 276 277 276 277 278 278
279 261 250 252 259 264 264 263 263 265 268 270 271 275 282 290 293 292 293 294 292 286 279 272 267 263 260 259 262 265 269 273 276 278 280 280 281 281 281 281 280 280 278 276 275 274 272 271 270 269 269 270 270 271 272 273 275 276 275 275 276 276 277
273 267 260 258 259 258 257 258 259 260 262 264 266 270 277 283 284 284 286 288 289 289 285 278 272 267 263 263 265 268 271 274 276 278 280 282 283 284 284 284 282 280 277 274 271 269 268 269 268 268 270 271 274 276 277 279 278 275 276 278 278 277 278
271 269 267 262 256 251 251 252 253 255 256 257 260 264 270 275 276 276 279 283 284 283 282 280 276 273 270 269 270 271 274 276 277 278 279 280 280 281 282 281 279 278 276 273 270 269 269 269 268 270 272 272 274 278 281 283 281 279 278 279 279 280 279
270 268 265 259 253 250 249 250 251 252 254 255 258 261 265 268 270 271 273 276 277 276 277 277 277 276 275 273 272 272 273 274 275 275 275 275 276 276 277 277 277 276 275 273 271 270 271 271 270 270 271 272 273 276 280 281 281 281 281 279 278 279 278
265 263 260 255 253 252 252 252 252 252 253 255 257 259 262 264 266 267 269 271 273 274 275 277 277 276 274 272 272 273 273 274 274 273 273 273 273 273 272 273 274 276 275 273 271 269 268 268 269 268 269 270 271 270 273 276 277 278 279 279 278 277 276
261 259 256 254 254 254 254 255 255 255 256 256 258 258 259 262 265 267 269 270 271 272 273 274 275 275 274 271 269 269 271 273 274 274 274 272 272 272 272 272 273 274 274 273 271 270 268 268 269 269 270 272 273 269 269 274 277 277 278 280 280 280 278
257 256 255 256 257 259 260 260 260 260 261 261 262 261 261 263 266 268 270 271 271 271 271 272 272 273 273 271 267 265 265 268 272 273 273 274 274 273 272 271 270 270 271 271 271 270 269 268 269 271 273 274 275 274 273 276 278 280 280 281 283 283 283
252 253 253 255 257 258 258 261 262 263 264 264 264 264 264 265 266 267 268 269 270 270 270 271 271 271 270 266 263 262 262 266 268 269 272 276 276 273 271 270 269 270 271 272 272 272 271 269 268 270 272 273 274 276 277 279 280 281 282 283 285 286 286
248 249 252 255 257 257 257 260 263 264 264 264 264 265 266 268 268 269 270 269 270 270 270 270 270 271 270 267 264 263 265 266 266 266 270 274 275 274 273 272 271 271 272 272 273 274 275 275 272 270 269 270 272 274 276 279 281 281 281 281 282 283 284
249 251 255 258 261 262 262 264 266 266 266 266 266 266 268 270 272 273 274 275 275 274 272 269 268 269 270 270 270 270 270 270 268 267 268 270 272 273 274 274 273 272 271 270 271 273 273 273 273 271 269 269 269 269 272 276 279 280 279 278 279 281 281
254 254 257 259 261 262 262 263 264 264 264 265 265 266 268 272 274 276 278 279 279 278 274 270 268 269 270 270 272 274 274 274 273 271 270 269 270 273 276 276 276 275 272 269 268 270 271 270 270 270 269 267 266 267 272 276 277 278 278 279 280 281 281
255 256 257 259 259 259 259 260 261 261 262 264 265 265 268 272 274 276 277 277 278 278 276 272 270 270 270 271 272 273 273 274 275 275 275 274 273 273 274 275 277 279 278 273 269 269 268 267 266 266 266 269 271 272 274 275 276 278 279 279 279 280 282
258 258 258 258 259 260 262 265 266 267 269 271 271 272 272 272 273 274 275 275 276 279 279 277 274 270 269 270 271 271 271 273 275 277 278 278 278 275 273 273 275 277 279 279 277 274 271 267 264 263 266 271 273 273 272 273 275 278 279 279 280 281 282
265 264 263 263 263 264 267 271 273 274 275 276 278 278 276 273 272 271 271 272 274 278 279 278 275 270 268 268 268 269 270 271 273 276 278 280 282 281 280 280 279 278 279 280 280 280 277 273 269 268 270 272 272 270 269 272 275 276 277 279 280 281 281
268 269 269 268 267 267 271 275 276 276 276 276 277 277 275 271 268 267 268 270 274 278 280 279 276 272 269 269 271 272 273 273 274 275 275 277 281 283 284 286 287 286 284 281 279 279 277 275 274 272 273 275 273 269 268 271 273 275 276 278 279 280 281
271 272 272 270 269 270 274 277 277 276 275 273 271 270 269 268 268 269 271 272 274 276 278 279 277 275 274 274 276 278 278 278 279 278 276 278 281 282 283 286 288 288 287 284 281 278 276 275 275 274 274 275 273 269 269 271 272 274 277 279 280 281 283
270 269 266 266 267 270 273 276 276 275 274 272 269 268 269 270 272 274 275 276 276 276 276 277 276 276 276 276 276 278 279 280 281 280 279 279 280 280 282 285 286 285 284 282 279 276 275 275 274 273 273 272 269 267 267 269 272 276 279 279 280 282 283
264 262 260 261 265 268 270 273 275 275 274 274 272 270 271 272 273 275 275 276 277 278 278 278 278 277 277 277 277 277 278 279 280 280 280 279 279 280 282 283 283 283 282 279 276 274 273 273 273 272 270 267 264 264 265 269 275 280 280 279 280 280 281
258 256 257 259 261 263 266 270 274 275 276 277 276 275 274 274 275 275 275 275 276 278 279 280 279 278 278 279 279 279 280 281 280 280 280 279 279 279 280 281 282 282 280 279 276 272 271 272 272 270 266 263 261 261 265 273 279 281 279 278 278 279 280
254 254 256 258 260 263 268 272 274 276 277 277 277 277 276 276 277 277 277 277 277 278 279 280 280 280 280 280 279 280 281 281 281 280 280 278 278 278 279 281 281 277 274 274 273 269 268 269 269 267 264 261 259 260 269 278 280 278 276 276 277 278 279
261 264 265 267 268 270 273 274 275 276 276 276 276 276 276 276 277 277 277 277 277 277 277 278 279 281 280 279 279 279 279 278 279 279 278 277 278 279 278 277 274 271 270 271 269 266 265 265 264 264 262 259 258 266 278 283 281 277 276 276 277 278 280
271 273 273 273 274 274 274 275 275 275 275 275 275 275 276 276 276 276 276 276 277 276 275 275 277 279 279 279 279 278 276 277 279 279 278 278 278 277 273 268 266 267 266 264 263 263 263 262 261 259 258 256 262 276 284 284 280 278 276 276 277 279 282
274 274 274 275 275 275 275 275 275 275 276 276 275 275 275 275 275 275 275 275 275 275 275 275 275 276 276 277 278 276 276 278 280 278 277 278 276 271 267 264 265 267 262 256 256 260 260 260 259 255 253 258 271 284 286 281 278 277 276 276 278 281 285
Height
5782 5782 5782 5782 5781 5781 5782 5782 5782 5782 5782 5781 5781 5781 5781 5781 5782 5782 5783 5784 5784 5784 5783 5784 5784 5784 5784 5784 5784 5784 5784 5784 5783 5783 5784 5785 5786 5786 5787 5787 5788 5788 5789 5788 5788 5788 5788 5788 5788 5788 5788 5787 5787 5787 5787 5787 5786 5787 5788 5789 5789 5789 5788
5781 5781 5780 5780 5780 5780 5781 5781 5781 5781 5781 5781 5780 5781 5781 5781 5781 5782 5782 5782 5783 5783 5783 5782 5782 5781 5781 5781 5782 5782 5782 5782 5782 5782 5783 5784 5784 5784 5784 5785 5786 5787 5787 5786 5786 5786 5786 5786 5786 5786 5786 5785 5785 5785 5785 5785 5785 5785 5785 5786 5787 5787 5787
5779 5779 5779 5779 5779 5780 5780 5781 5781 5781 5780 5780 5780 5780 5780 5781 5781 5781 5781 5781 5782 5782 5782 5782 5781 5780 5780 5779 5779 5780 5780 5780 5781 5781 5781 5782 5782 5782 5782 5783 5784 5785 5784 5784 5784 5784 5784 5784 5784 5784 5784 5783 5783 5783 5783 5783 5783 5782 5783 5784 5784 5784 5784
5777 5778 5778 5778 5778 5778 5779 5780 5780 5780 5779 5779 5779 5779 5780 5780 5780 5780 5781 5781 5780 5780 5781 5781 5780 5780 5779 5778 5778 5778 5778 5778 5779 5779 5779 5780 5780 5780 5780 5781 5782 5782 5782 5782 5782 5782 5782 5782 5782 5782 5781 5781 5781 5781 5781 5781 5780 5780 5780 5781 5781 5781 5782
5775 5776 5776 5776 5776 5777 5777 5778 5779 5779 5778 5778 5778 5778 5779 5779 5779 5779 5779 5779 5779 5779 5779 5779 5779 5778 5778 5777 5777 5776 5776 5776 5777 5777 5777 5777 5778 5778 5778 5779 5779 5780 5780 5780 5780 5780 5780 5780 5780 5780 5780 5779 5779 5779 5779 5779 5779 5778 5778 5778 5779 5779 5779
5773 5773 5774 5775 5775 5775 5776 5777 5777 5777 5777 5777 5777 5777 5777 5778 5778 5778 5778 5778 5777 5777 5777 5777 5777 5777 5776 5776 5776 5776 5775 5775 5775 5775 5776 5776 5776 5776 5776 5777 5778 5778 5778 5778 5778 5778 5778 5778 5778 5778 5778 5778 5777 5777 5777 5777 5777 5777 5777 5777 5777 5777 5777
5771 5771 5772 5773 5773 5774 5775 5776 5776 5776 5776 5776 5776 5776 5776 5776 5777 5776 5776 5776 5776 5775 5775 5775 5775 5775 5775 5775 5775 5775 5774 5774 5774 5774 5774 5775 5775 5775 5775 5775 5776 5776 5777 5777 5777 5777 5777 5777 5777 5777 5777 5776 5776 5776 5776 5776 5776 5776 5776 5776 5776 5776 5776
5770 5771 5771 5771 5772 5773 5774 5774 5775 5775 5775 5775 5775 5775 5775 5775 5775 5775 5774 5774 5774 5774 5773 5773 5773 5773 5773 5773 5773 5773 5773 5772 5772 5773 5773 5773 5773 5773 5773 5774 5774 5774 5775 5775 5775 5776 5776 5776 5776 5776 5776 5776 5775 5775 5775 5775 5775 5774 5774 5775 5775 5775 5774
5769 5770 5770 5770 5771 5772 5772 5773 5773 5773 5773 5773 5773 5773 5773 5773 5773 5773 5772 5772 5772 5772 5772 5772 5771 5771 5771 5771 5771 5771 5771 5771 5771 5771 5771 5772 5772 5772 5772 5772 5772 5773 5773 5773 5774 5774 5775 5775 5775 5775 5775 5775 5775 5774 5774 5774 5773 5773 5773 5773 5773 5773 5773
5768 5769 5769 5769 5770 5770 5771 5771 5771 5771 5772 5772 5771 5771 5771 5771 5771 5771 5771 5770 5769 5770 5770 5770 5769 5769 5769 5768 5769 5769 5769 5769 5769 5770 5770 5770 5770 5770 5770 5771 5771 5771 5772 5772 5773 5773 5773 5773 5774 5773 5774 5774 5773 5773 5773 5772 5772 5772 5772 5772 5772 5772 5772
5766 5767 5767 5767 5768 5768 5769 5769 5769 5770 5770 5770 5770 5770 5770 5769 5769 5769 5769 5769 5768 5768 5768 5768 5768 5767 5767 5767 5767 5767 5767 5767 5768 5768 5768 5768 5768 5769 5769 5769 5770 5770 5770 5771 5771 5771 5772 5772 5772 5772 5772 5772 5772 5772 5772 5772 5771 5771 5771 5771 5770 5770 5770
5763 5764 5764 5765 5766 5766 5767 5767 5768 5768 5768 5768 5769 5768 5768 5768 5768 5768 5768 5767 5767 5766 5766 5767 5767 5766 5766 5766 5765 5765 5766 5766 5766 5767 5767 5767 5767 5768 5768 5768 5769 5769 5769 5769 5769 5770 5770 5770 5770 5770 5770 5771 5771 5771 5770 5770 5770 5770 5770 5769 5769 5769 5768
5759 5760 5762 5763 5764 5765 5765 5765 5766 5766 5767 5767 5767 5767 5767 5766 5766 5766 5766 5766 5765 5765 5764 5764 5764 5764 5764 5764 5764 5764 5764 5765 5765 5765 5766 5766 5766 5766 5767 5767 5767 5767 5767 5768 5768 5768 5768 5768 5768 5769 5769 5769 5769 5769 5769 5769 5769 5768 5768 5768 5767 5767 5767
5756 5757 5759 5761 5762 5763 5763 5763 5764 5764 5764 5765 5765 5765 5765 5764 5764 5764 5764 5764 5764 5763 5763 5762 5762 5762 5762 5762 5762 5762 5763 5763 5764 5764 5764 5765 5765 5765 5765 5765 5765 5765 5766 5766 5766 5766 5766 5766 5766 5767 5767 5767 5767 5767 5767 5767 5767 5767 5766 5766 5765 5765 5765
5753 5754 5756 5758 5759 5760 5760 5761 5761 5762 5762 5762 5762 5762 5762 5762 5762 5763 5763 5762 5762 5762 5761 5761 5761 5760 5760 5760 5760 5761 5761 5761 5762 5762 5762 5763 5763 5763 5763 5763 5763 5764 5764 5764 5764 5764 5764 5764 5765 5765 5765 5765 5765 5765 5765 5765 5765 5765 5764 5764 5764 5764 5763
5750 5751 5752 5754 5755 5756 5757 5758 5758 5759 5759 5760 5760 5760 5760 5760 5760 5761 5761 5760 5760 5760 5759 5759 5759 5759 5759 5759 5759 5759 5759 5759 5760 5760 5760 5760 5761 5761 5761 5762 5762 5762 5762 5762 5762 5762 5762 5762 5763 5763 5763 5763 5763 5763 5763 5763 5764 5763 5763 5763 5763 5763 5762
5746 5747 5748 5749 5751 5752 5753 5754 5755 5756 5756 5757 5757 5758 5758 5758 5758 5758 5758 5758 5758 5758 5757 5758 5758 5757 5757 5757 5757 5757 5757 5757 5757 5758 5758 5758 5758 5759 5759 5759 5759 5760 5760 5760 5760 5760 5760 5760 5761 5760 5760 5761 5761 5760 5760 5761 5761 5761 5761 5761 5761 5761 5761
5743 5744 5745 5746 5747 5749 5750 5751 5752 5753 5754 5755 5755 5755 5756 5756 5756 5756 5756 5756 5756 5756 5756 5756 5756 5756 5756 5756 5755 5755 5755 5755 5755 5755 5756 5756 5756 5756 5756 5757 5757 5757 5758 5758 5758 5757 5757 5757 5758 5758 5758 5758 5759 5759 5758 5758 5759 5759 5759 5759 5759 5759 5759
5739 5740 5742 5743 5744 5746 5747 5748 5749 5750 5751 5752 5753 5753 5754 5754 5754 5754 5754 5754 5754 5754 5754 5754 5754 5754 5754 5754 5754 5754 5754 5753 5753 5753 5753 5753 5753 5754 5754 5754 5755 5755 5755 5755 5755 5755 5755 5755 5755 5756 5756 5755 5756 5757 5756 5755 5756 5756 5756 5756 5757 5757 5757
5737 5738 5739 5740 5741 5743 5744 5745 5746 5747 5748 5750 5750 5751 5751 5752 5752 5752 5752 5752 5752 5752 5752 5752 5752 5752 5752 5752 5752 5752 5751 5751 5751 5751 5751 5751 5751 5751 5752 5752 5752 5753 5752 5752 5752 5752 5752 5752 5752 5752 5753 5752 5753 5754 5753 5752 5753 5753 5753 5753 5753 5753 5753
5734 5735 5736 5737 5739 5740 5741 5742 5743 5744 5746 5747 5747 5748 5749 5749 5749 5750 5750 5750 5751 5751 5751 5751 5750 5750 5750 5749 5749 5749 5749 5748 5748 5748 5747 5747 5748 5749 5749 5749 5749 5749 5749 5749 5749 5749 5749 5749 5749 5749 5749 5749 5749 5749 5749 5749 5749 5749 5749 5749 5748 5749 5749
5732 5733 5734 5735 5736 5737 5738 5739 5741 5742 5743 5743 5744 5745 5746 5746 5747 5747 5747 5748 5748 5748 5748 5748 5748 5748 5747 5747 5746 5746 5745 5746 5746 5745 5744 5744 5745 5746 5746 5746 5746 5746 5746 5746 5746 5746 5745 5745 5745 5745 5745 5745 5745 5745 5745 5745 5745 5745 5744 5744 5744 5743 5743
5729 5730 5731 5732 5733 5734 5735 5736 5737 5738 5739 5740 5741 5742 5742 5743 5743 5744 5744 5745 5745 5745 5745 5745 5744 5744 5743 5743 5743 5742 5742 5742 5743 5742 5742 5742 5742 5742 5742 5742 5742 5742 5742 5742 5742 5742 5742 5741 5741 5741 5741 5741 5741 5741 5741 5741 5741 5741 5741 5740 5739 5739 5739
5726 5727 5728 5729 5730 5731 5732 5733 5734 5735 5736 5736 5737 5738 5739 5739 5740 5740 5741 5742 5742 5742 5741 5741 5740 5739 5738 5738 5739 5739 5739 5739 5739 5739 5739 5738 5738 5738 5738 5738 5738 5737 5738 5738 5738 5738 5738 5737 5737 5736 5736 5737 5737 5737 5737 5737 5737 5737 5737 5736 5736 5735 5735
5722 5723 5724 5725 5726 5727 5728 5729 5730 5731 5732 5733 5734 5734 5735 5735 5736 5737 5738 5738 5737 5737 5735 5735 5735 5735 5734 5734 5735 5735 5735 5735 5735 5734 5734 5734 5734 5734 5734 5734 5734 5734 5733 5733 5733 5734 5734 5733 5733 5733 5733 5733 5733 5733 5733 5733 5733 5733 5732 5732 5731 5731 5730
5718 5719 5721 5721 5722 5723 5725 5725 5727 5728 5728 5729 5730 5730 5730 5731 5731 5732 5733 5732 5731 5730 5728 5728 5730 5731 5731 5730 5731 5731 5731 5731 5730 5730 5730 5730 5730 5731 5731 5730 5730 5730 5729 5729 5729 5729 5729 5729 5728 5729 5729 5729 5729 5729 5729 5729 5728 5728 5728 5727 5727 5726 5725
5714 5715 5717 5717 5718 5719 5720 5720 5722 5722 5723 5723 5724 5725 5725 5726 5726 5726 5727 5727 5726 5725 5723 5723 5725 5727 5726 5726 5727 5726 5726 5726 5726 5725 5725 5725 5725 5726 5726 5725 5725 5725 5725 5724 5724 5724 5724 5724 5723 5724 5724 5725 5725 5725 5724 5724 5724 5723 5723 5722 5722 5721 5720
5709 5710 5712 5712 5713 5713 5714 5714 5715 5716 5716 5717 5717 5718 5719 5720 5720 5721 5721 5721 5722 5721 5719 5718 5719 5721 5721 5722 5722 5722 5722 5722 5722 5722 5721 5720 5720 5719 5720 5720 5720 5720 5720 5720 5719 5719 5720 5719 5719 5719 5720 5720 5720 5720 5719 5719 5718 5718 5717 5717 5716 5716 5715
5704 5705 5706 5706 5706 5707 5707 5708 5709 5710 5710 5711 5712 5713 5714 5714 5714 5715 5716 5717 5717 5717 5715 5714 5715 5715 5715 5716 5717 5718 5718 5718 5718 5718 5717 5716 5715 5714 5714 5715 5713 5713 5715 5715 5713 5713 5713 5713 5713 5714 5714 5714 5714 5714 5714 5713 5713 5712 5712 5712 5711 5710 5710
5699 5699 5699 5699 5700 5700 5701 5701 5702 5703 5704 5705 5706 5707 5708 5709 5709 5710 5711 5712 5712 5712 5712 5711 5711 5710 5710 5711 5711 5712 5712 5712 5713 5712 5711 5711 5709 5708 5709 5710 5708 5708 5709 5709 5707 5706 5707 5707 5707 5708 5709 5708 5708 5708 5708 5708 5707 5707 5707 5706 5706 5705 5704
5693 5694 5694 5694 5694 5695 5695 5695 5696 5697 5698 5699 5700 5701 5702 5703 5704 5704 5706 5707 5707 5707 5706 5706 5706 5705 5705 5704 5705 5706 5706 5706 5706 5705 5705 5705 5703 5702 5704 5704 5704 5703 5703 5702 5701 5700 5700 5701 5701 5702 5702 5703 5702 5702 5702 5702 5702 5702 5702 5701 5701 5700 5699
5687 5688 5688 5688 5688 5689 5689 5689 5690 5691 5692 5693 5694 5695 5695 5696 5697 5698 5699 5700 5700 5700 5700 5699 5699 5699 5699 5698 5698 5699 5699 5699 5699 5698 5698 5698 5697 5697 5698 5697 5697 5697 5696 5696 5695 5694 5694 5694 5694 5695 5696 5696 5697 5697 5696 5697 5697 5697 5696 5696 5695 5694 5693
5681 5682 5682 5682 5683 5683 5683 5683 5684 5684 5685 5686 5687 5687 5688 5688 5688 5689 5690 5692 5692 5693 5693 5692 5692 5692 5692 5692 5691 5691 5691 5691 5691 5691 5690 5690 5690 5692 5691 5690 5691 5690 5688 5688 5688 5687 5687 5687 5688 5689 5689 5690 5691 5692 5691 5691 5691 5691 5691 5690 5689 5689 5688
5674 5675 5675 5675 5676 5676 5676 5677 5677 5677 5677 5678 5678 5679 5679 5680 5680 5680 5680 5682 5684 5685 5685 5685 5684 5683 5684 5684 5684 5684 5684 5683 5683 5683 5682 5681 5683 5685 5684 5684 5685 5683 5681 5681 5682 5681 5681 5681 5682 5683 5683 5684 5685 5687 5687 5686 5686 5686 5685 5684 5684 5683 5682
5667 5668 5668 5668 5668 5669 5669 5669 5669 5669 5669 5669 5670 5670 5671 5671 5672 5672 5672 5673 5675 5677 5678 5677 5676 5675 5675 5676 5677 5677 5678 5677 5676 5676 5676 5675 5676 5678 5678 5679 5679 5676 5674 5675 5676 5676 5676 5676 5676 5677 5678 5678 5680 5680 5681 5680 5680 5680 5679 5678 5678 5678 5677
5659 5660 5660 5659 5660 5660 5660 5660 5660 5660 5660 5660 5661 5661 5662 5662 5662 5663 5664 5665 5666 5668 5668 5669 5669 5668 5666 5667 5668 5668 5669 5669 5669 5669 5669 5668 5669 5670 5670 5671 5671 5670 5669 5669 5670 5670 5670 5670 5670 5671 5672 5673 5674 5674 5674 5674 5673 5673 5673 5673 5672 5672 5670
5650 5651 5651 5650 5651 5651 5651 5651 5651 5651 5651 5651 5651 5651 5652 5652 5652 5653 5655 5656 5657 5658 5658 5660 5662 5661 5659 5659 5659 5659 5660 5660 5660 5662 5663 5662 5663 5663 5662 5663 5663 5662 5662 5662 5663 5664 5664 5664 5664 5665 5666 5666 5667 5667 5667 5667 5667 5667 5667 5667 5666 5665 5664